motilaloswal.com alexa rank chart, motilaloswal.com alexa rank daily changes

motilaloswal.com alexa rank chart, motilaloswal.com alexa rank daily changes

motilaloswal.com
Actual rank:
34 407

RANK HISTORY

Date Rank Diff
2017/04/29 34 407 -104
2017/04/28 34 511 -583
2017/04/27 35 094 -302
2017/04/26 35 396 -7
2017/04/25 35 403 +889
2017/04/24 34 514 +116
2017/04/23 34 398 -319
2017/04/22 34 717 -79
2017/04/21 34 796 -331
2017/04/20 35 127 -279
2017/04/19 35 406 +176
2017/04/18 35 230 +403
2017/04/17 34 827 +32
2017/04/16 34 795 +408
2017/04/15 34 387 -434
2017/04/14 34 821 -654
2017/04/13 35 475 -724
2017/04/12 36 199 -325
2017/04/11 36 524 +460
2017/04/10 36 064 +400
2017/04/09 35 664 +181
2017/04/08 35 483 +138
2017/04/07 35 345 -764
2017/04/06 36 109 -279
2017/04/05 36 388 +171
2017/04/04 36 217 +1 002
2017/04/03 35 215 +921
2017/04/02 34 294 -4
2017/04/01 34 298 -33
2017/03/31 34 331 -181
2017/03/30 34 512 -318
2017/03/29 34 830 -102
2017/03/28 34 932 -247
2017/03/27 35 179 -421
2017/03/26 35 600 -822
2017/03/25 36 422 -506
2017/03/24 36 928 -209
2017/03/23 37 137 -119
2017/03/22 37 256 -153
2017/03/21 37 409 -353
2017/03/20 37 762 -571
2017/03/19 38 333 -174
2017/03/18 38 507 +399
2017/03/17 38 108 +192
2017/03/16 37 916 -65
2017/03/15 37 981 +721
2017/03/14 37 260 +225
2017/03/13 37 035 +18
2017/03/12 37 017 +431
2017/03/11 36 586 +372
2017/03/10 36 214 -227
2017/03/09 36 441 -113
2017/03/08 36 554 +984
2017/03/07 35 570 -64
2017/03/06 35 634 -172
2017/03/01 35 806 -363
2017/02/28 36 169

WIDGET FOR YOUR SITE

DOMAINS WITH THE NEAREST RANK

Domain Rank
codeiq.jp 34 402
gettyimages.es 34 403
roomclip.jp 34 404
jia.com 34 405
myparcels.ru 34 406
motilaloswal.com 34 407
mitrarank.ir 34 408
maarif.com.sa 34 409
sportsshoes.com 34 410
humankinetics.com 34 411
uji.es 34 412

DOMAINS WITH THE NEAREST RANK BY TLD .com

Domain Rank
auctionexport.com 34 393
fashiontrendsmag.com 34 396
teslamotorsclub.com 34 398
bodycontact.com 34 399
jia.com 34 405
motilaloswal.com 34 407
sportsshoes.com 34 410
humankinetics.com 34 411
sunnewsonline.com 34 415
tailorbrands.com 34 418
neatorama.com 34 419